{"data":{"norad_id":58036,"intl_designator":"2023-156J","name":"STARLINK-30437","alt_names":[],"object_type":"PAYLOAD","status":"ACTIVE","operator":null,"country":"US","launch_date":"2023-10-09","launch_site_code":"AFWTR","launch_vehicle":null,"mission":null,"orbit_class":"UNKNOWN","rcs_meters":null,"size_class":null,"mass_kg":null,"dimensions":null,"purposes":["comms"],"wikipedia_slug":null,"has_3d_model":false,"image_url":null,"decayed_at":null,"tle_current":{"epoch":"2026-05-25T04:58:54.479136Z","epoch_age_seconds":53288,"freshness":"FRESH","line1":"1 58036U 23156J   26145.20757499 -.00000093  00000+0  89811-5 0  9994","line2":"2 58036  53.1610  82.7766 0001260  97.7190 262.3954 15.30188219147986","mean_motion":15.30188219,"eccentricity":0.000126,"inclination_deg":53.161,"raan_deg":82.7766,"arg_perigee_deg":97.719,"mean_anomaly_deg":262.3954,"bstar":8.9811e-6,"rev_number":14798,"period_min":94.106070228476,"perigee_km":474.38671879453,"apogee_km":476.11377238041,"semimajor_km":6853.3872455875,"source":"CELESTRAK","updated_at":"2026-05-25T13:38:18.495788Z"}}}